This is the latest recevied weather packets stored in our database for station/object K1RFS. If no packets are shown the sender has not sent any weather packets the latest 10 day(s).
| Time | Temp. | Humidity | Pressure | Rain* | Wind** | Luminosity | Snow |
|---|---|---|---|---|---|---|---|
| 1788080123 | 16.67° C | 78% | 1002.5 hPa | 0 mm | - | 0 W/m² | - |
| 1788079819 | 16.67° C | 77% | 1002.6 hPa | 0 mm | - | 0 W/m² | - |
| 1788079514 | 16.67° C | 79% | 1002.4 hPa | 0 mm | - | 0 W/m² | - |
| 1788079209 | 16.67° C | 79% | 1002.6 hPa | 0 mm | - | 0 W/m² | - |
| 1788078904 | 17.22° C | 78% | 1003.1 hPa | 0 mm | - | 0 W/m² | - |
| 1788078605 | 17.22° C | 78% | 1002.8 hPa | 0 mm | - | 0 W/m² | - |
| 1788078300 | 17.22° C | 77% | 1003 hPa | 0 mm | - | 0 W/m² | - |
| 1788077994 | 17.22° C | 76% | 1002.6 hPa | 0 mm | - | 0 W/m² | - |
| 1788077690 | 17.22° C | 75% | 1002.5 hPa | 0 mm | - | 0 W/m² | - |
| 1788077389 | 17.22° C | 76% | 1002.4 hPa | 0 mm | - | 0 W/m² | - |
| 1788077085 | 17.22° C | 73% | 1002 hPa | 0 mm | - | 0 W/m² | - |
| 1788076785 | 17.22° C | 75% | 1002.3 hPa | 0 mm | - | 0 W/m² | - |
| 1788076480 | 17.22° C | 77% | 1002.1 hPa | 0 mm | - | 0 W/m² | - |
| 1788076175 | 17.78° C | 76% | 1002.3 hPa | 0 mm | - | 0 W/m² | - |
| 1788075871 | 17.78° C | 73% | 1002.2 hPa | 0 mm | - | 0 W/m² | - |
| 1788075566 | 17.78° C | 73% | 1001.8 hPa | 0 mm | - | 0 W/m² | - |
| 1788075262 | 17.78° C | 71% | 1001.8 hPa | 0 mm | - | 0 W/m² | - |
| 1788074958 | 17.78° C | 71% | 1002.3 hPa | 0 mm | - | 0 W/m² | - |
| 1788074654 | 17.78° C | 71% | 1002.1 hPa | 0 mm | - | 0 W/m² | - |
| 1788074353 | 17.78° C | 71% | 1002.3 hPa | 0 mm | - | 0 W/m² | - |
| 1788074053 | 17.78° C | 73% | 1002.2 hPa | 0 mm | - | 0 W/m² | - |
| 1788073747 | 17.78° C | 76% | 1001.8 hPa | 0 mm | - | 0 W/m² | - |
| 1788073447 | 17.22° C | 79% | 1001.8 hPa | 0 mm | - | 0 W/m² | - |
| 1788073146 | 17.22° C | 81% | 1002.1 hPa | 0 mm | - | 0 W/m² | - |
| 1788072840 | 17.22° C | 81% | 1002.4 hPa | 0 mm | - | 0 W/m² | - |
* Rain latest hour (hover to see other rain measurements)
** Current wind speed in m/s (hover to see current wind gust speed)